Flag for Russia Weather past 2 weeks in Chelyabinsk, Russia

Now
19 °F

Clear.


Feels Like: 11 °F
Forecast: 12 / 24 °F
Wind: 6 mph from South

Location: Chelyabinsk-Balandino

Current Time: Mar 1, 2015 at 10:48:31 PM

Latest Report: Mar 1, 2015 at 10:30 PM


Visibility: 10 mi

Pressure: 30.45 "Hg

Humidity: 68%

Dew point: 10 °F

Location of ChelyabinskLocation

Historic Weather in Chelyabinsk — Graph

°F

Chelyabinsk temperature yesterday

Maximum temperature yesterday: 34 °F (at 2:00 PM)
Minimum temperature yesterday: 21 °F (at 6:30 AM)
Average temperature yesterday: 27 °F

Past Weeks' High & Low Weather Summary

 TemperatureHumidityPressure
High43 °F (Feb 27, 3:30 PM)86% (Feb 16, 12:30 PM)30.57 "Hg (Feb 16, 12:30 PM)
Low-8 °F (Feb 19, 9:00 AM)21% (Feb 18, 9:30 PM)29.74 "Hg (Feb 21, 6:00 AM)
Average21 °F60%30.23 "Hg
* Reported Feb 14 9:00 PM — Mar 1 9:30 PM, Chelyabinsk, Weather by CustomWeather, © 2015

Note: Actual official high and low records may vary slightly from our data, if they occured in-between our weather recording intervals... More about our weather records

Advertising

Chelyabinsk weather history for previous 24 hours

 ConditionsComfort  
Time TempWeatherWind HumidityBarometerVisibility
9:30 PM
Sun, Mar 1
23 °FClear.8 mph68%30.45 "Hg10 mi
9:00 PM23 °FClear.6 mph68%30.45 "Hg10 mi
8:30 PM25 °FClear.6 mph63%30.48 "Hg10 mi
8:00 PM25 °FSunny.8 mph63%30.48 "Hg10 mi
7:30 PM27 °FSunny.6 mph59%30.48 "Hg10 mi
7:00 PM28 °FSunny.8 mph55%30.48 "Hg10 mi
6:30 PM30 °FSunny.6 mph55%30.48 "Hg10 mi
6:00 PM32 °FSunny.6 mph51%30.48 "Hg10 mi
5:30 PM34 °FSunny.8 mph48%30.48 "Hg10 mi
5:00 PM34 °FSunny.8 mph48%30.48 "Hg10 mi
4:30 PM34 °FSunny.10 mph44%30.48 "Hg10 mi
4:00 PM36 °FPartly sunny.10 mph41%30.48 "Hg4 mi
3:30 PM36 °FPartly sunny.10 mph41%30.48 "Hg4 mi
3:00 PM34 °FPartly sunny.10 mph48%30.48 "Hg4 mi
2:30 PM34 °FPartly sunny.8 mph51%30.48 "Hg4 mi
2:00 PM32 °FPartly sunny.10 mph55%30.51 "Hg3 mi
1:30 PM32 °FPartly sunny.10 mph55%30.51 "Hg3 mi
1:00 PM30 °FPartly sunny.8 mph64%30.51 "Hg3 mi
12:30 PM28 °FScattered clouds.6 mph69%30.51 "Hg3 mi
12:00 PM27 °FScattered clouds.6 mph69%30.51 "Hg3 mi
11:30 AM25 °FScattered clouds.3 mph69%30.51 "Hg3 mi
11:00 AM23 °FIce fog.3 mph68%30.51 "Hg2 mi
10:30 AM21 °FIce fog.No wind68%30.51 "Hg2 mi
10:00 AM18 °FIce fog.1 mph73%30.51 "Hg2 mi
9:30 AM14 °FIce fog.3 mph79%30.51 "Hg2 mi
9:00 AM12 °FIce fog.3 mph79%30.51 "Hg2 mi
8:30 AM14 °FIce fog.3 mph79%30.51 "Hg2 mi
8:00 AM10 °FIce fog.3 mph79%30.51 "Hg2 mi
7:30 AM10 °FPassing clouds.1 mph72%30.51 "Hg2 mi
7:00 AM14 °FPassing clouds.1 mph73%30.51 "Hg2 mi
6:30 AM14 °FPassing clouds.3 mph79%30.51 "Hg3 mi
6:00 AM16 °FPassing clouds.3 mph79%30.51 "Hg3 mi
5:30 AM16 °FPassing clouds.1 mph73%30.51 "Hg3 mi
5:00 AM14 °FPassing clouds.No wind79%30.51 "Hg2 mi
4:30 AM12 °FPassing clouds.No wind79%30.51 "Hg2 mi
4:00 AM14 °FPassing clouds.No wind73%30.51 "Hg3 mi
3:30 AM16 °FPassing clouds.No wind73%30.51 "Hg3 mi
3:00 AM16 °FPassing clouds.No wind73%30.51 "Hg3 mi
2:00 AM16 °FPassing clouds.1 mph73%30.51 "Hg3 mi
1:30 AM18 °FClear.No wind68%30.51 "Hg10 mi
1:00 AM18 °FClear.3 mph68%30.51 "Hg10 mi
12:30 AM21 °FClear.No wind63%30.51 "Hg10 mi
12:00 AM21 °FClear.1 mph68%30.51 "Hg10 mi
11:30 PM
Sat, Feb 28
23 °FClear.3 mph63%30.51 "Hg10 mi
11:00 PM23 °FClear.3 mph63%30.54 "Hg10 mi
10:30 PM23 °FClear.3 mph68%30.54 "Hg10 mi
10:00 PM25 °FClear.3 mph63%30.54 "Hg10 mi
Weather by CustomWeather, © 2015

See weather overviewHow to use our weather pages